Time,TemperatureF,DewpointF,PressureIn,WindDirection,WindDirectionDegrees,WindSpeedMPH,WindSpeedGustMPH,Humidity,HourlyPrecipIn,Conditions,Clouds,dailyrainin,SoftwareType,DateUTC
2013-01-08 00:05:00,22.7,20.2,30.01,West,265,0.0,0.0,90,0.00,,,0.00,Wunderground v.1.15,2013-01-08 06:05:00,
2013-01-08 00:10:00,22.1,19.4,30.01,West,265,0.0,0.0,89,0.00,,,0.00,Wunderground v.1.15,2013-01-08 06:10:00,
2013-01-08 00:15:00,21.8,19.1,30.01,West,264,0.0,0.0,89,0.00,,,0.00,Wunderground v.1.15,2013-01-08 06:15:00,
2013-01-08 00:20:00,21.5,18.8,30.01,West,265,0.0,0.0,89,0.00,,,0.00,Wunderground v.1.15,2013-01-08 06:20:00,
2013-01-08 00:26:00,21.3,18.6,30.01,West,265,0.0,0.0,89,0.00,,,0.00,Wunderground v.1.15,2013-01-08 06:26:00,
2013-01-08 00:31:00,21.3,18.6,30.01,West,264,0.0,0.0,89,0.00,,,0.00,Wunderground v.1.15,2013-01-08 06:31:00,
2013-01-08 00:37:00,21.3,18.6,30.01,West,265,0.0,0.0,89,0.00,,,0.00,Wunderground v.1.15,2013-01-08 06:37:00,
2013-01-08 00:42:00,21.2,18.5,30.01,West,264,0.0,0.0,89,0.00,,,0.00,Wunderground v.1.15,2013-01-08 06:42:00,
2013-01-08 00:47:00,21.1,18.4,30.01,West,265,0.0,0.0,89,0.00,,,0.00,Wunderground v.1.15,2013-01-08 06:47:00,
2013-01-08 00:53:00,21.0,18.3,30.01,West,264,0.0,0.0,89,0.00,,,0.00,Wunderground v.1.15,2013-01-08 06:53:00,
2013-01-08 00:58:00,20.8,18.1,30.01,West,265,0.0,0.0,89,0.00,,,0.00,Wunderground v.1.15,2013-01-08 06:58:00,
2013-01-08 01:03:00,20.9,18.2,30.01,West,264,0.0,0.0,89,0.00,,,0.00,Wunderground v.1.15,2013-01-08 07:03:00,
2013-01-08 01:08:00,20.7,18.0,30.00,West,265,0.0,0.0,89,0.00,,,0.00,Wunderground v.1.15,2013-01-08 07:08:00,
2013-01-08 01:13:00,20.4,17.7,30.00,West,265,0.0,0.0,89,0.00,,,0.00,Wunderground v.1.15,2013-01-08 07:13:00,
2013-01-08 01:18:00,20.6,18.0,30.00,West,264,0.0,0.0,89,0.00,,,0.00,weatherlink.com 1.10,2013-01-08 07:18:00,
2013-01-08 01:24:00,20.5,18.0,30.00,West,265,0.0,0.0,90,0.00,,,0.00,Wunderground v.1.15,2013-01-08 07:24:00,
2013-01-08 01:29:00,20.8,18.3,30.00,West,265,0.0,0.0,90,0.00,,,0.00,Wunderground v.1.15,2013-01-08 07:29:00,
2013-01-08 01:35:00,20.4,17.7,30.00,West,265,0.0,0.0,89,0.00,,,0.00,Wunderground v.1.15,2013-01-08 07:35:00,
2013-01-08 01:40:00,20.1,17.4,30.00,West,265,0.0,0.0,89,0.00,,,0.00,Wunderground v.1.15,2013-01-08 07:40:00,
2013-01-08 01:46:00,19.7,17.0,29.99,West,265,0.0,0.0,89,0.00,,,0.00,weatherlink.com 1.10,2013-01-08 07:46:00,
2013-01-08 01:51:00,19.0,16.3,30.00,West,264,0.0,0.0,89,0.00,,,0.00,Wunderground v.1.15,2013-01-08 07:51:00,
2013-01-08 01:58:00,18.9,16.2,30.00,West,265,0.0,0.0,89,0.00,,,0.00,Wunderground v.1.15,2013-01-08 07:58:00,
2013-01-08 02:04:00,18.7,16.0,29.99,West,265,0.0,0.0,89,0.00,,,0.00,Wunderground v.1.15,2013-01-08 08:04:00,
2013-01-08 02:10:00,18.8,16.1,30.00,West,264,0.0,0.0,89,0.00,,,0.00,Wunderground v.1.15,2013-01-08 08:10:00,
2013-01-08 02:15:00,19.3,16.8,30.00,West,264,0.0,0.0,90,0.00,,,0.00,Wunderground v.1.15,2013-01-08 08:15:00,
2013-01-08 02:22:00,18.7,16.0,30.00,West,264,0.0,0.0,89,0.00,,,0.00,Wunderground v.1.15,2013-01-08 08:22:00,
2013-01-08 02:27:00,18.2,15.5,30.00,West,265,0.0,0.0,89,0.00,,,0.00,Wunderground v.1.15,2013-01-08 08:27:00,
2013-01-08 02:33:00,17.6,14.9,30.00,West,265,0.0,0.0,89,0.00,,,0.00,Wunderground v.1.15,2013-01-08 08:33:00,
2013-01-08 02:38:00,17.6,14.9,30.00,West,265,0.0,0.0,89,0.00,,,0.00,Wunderground v.1.15,2013-01-08 08:38:00,
2013-01-08 02:44:00,17.7,15.0,30.00,West,265,0.0,0.0,89,0.00,,,0.00,Wunderground v.1.15,2013-01-08 08:44:00,
2013-01-08 02:50:00,17.4,14.7,29.99,West,265,0.0,0.0,89,0.00,,,0.00,Wunderground v.1.15,2013-01-08 08:50:00,
2013-01-08 02:56:00,17.2,14.5,29.99,West,265,0.0,0.0,89,0.00,,,0.00,Wunderground v.1.15,2013-01-08 08:56:00,
2013-01-08 03:01:00,17.1,14.4,29.99,West,265,0.0,0.0,89,0.00,,,0.00,Wunderground v.1.15,2013-01-08 09:01:00,
2013-01-08 03:07:00,17.1,14.4,29.99,West,265,0.0,0.0,89,0.00,,,0.00,Wunderground v.1.15,2013-01-08 09:07:00,
2013-01-08 03:12:00,17.2,14.5,29.99,West,265,0.0,0.0,89,0.00,,,0.00,Wunderground v.1.15,2013-01-08 09:12:00,
2013-01-08 03:18:00,17.2,14.5,29.99,West,265,0.0,0.0,89,0.00,,,0.00,Wunderground v.1.15,2013-01-08 09:18:00,
2013-01-08 03:24:00,17.0,14.3,29.98,West,265,0.0,0.0,89,0.00,,,0.00,Wunderground v.1.15,2013-01-08 09:24:00,
2013-01-08 03:29:00,16.7,14.0,29.98,West,265,0.0,0.0,89,0.00,,,0.00,Wunderground v.1.15,2013-01-08 09:29:00,
2013-01-08 03:35:00,16.6,13.9,29.98,West,265,0.0,0.0,89,0.00,,,0.00,Wunderground v.1.15,2013-01-08 09:35:00,
2013-01-08 03:41:00,16.5,13.8,29.98,West,265,0.0,0.0,89,0.00,,,0.00,Wunderground v.1.15,2013-01-08 09:41:00,
2013-01-08 03:46:00,16.9,14.2,29.98,West,264,0.0,0.0,89,0.00,,,0.00,Wunderground v.1.15,2013-01-08 09:46:00,
2013-01-08 03:52:00,17.5,15.1,29.98,West,265,0.0,0.0,90,0.00,,,0.00,Wunderground v.1.15,2013-01-08 09:52:00,
2013-01-08 03:57:00,18.0,15.6,29.97,West,264,0.0,0.0,90,0.00,,,0.00,Wunderground v.1.15,2013-01-08 09:57:00,
2013-01-08 04:03:00,18.3,15.9,29.96,West,264,0.0,0.0,90,0.00,,,0.00,Wunderground v.1.15,2013-01-08 10:03:00,
2013-01-08 04:10:00,18.1,15.7,29.96,West,265,0.0,0.0,90,0.00,,,0.00,Wunderground v.1.15,2013-01-08 10:10:00,
2013-01-08 04:15:00,18.0,15.6,29.96,West,265,0.0,0.0,90,0.00,,,0.00,Wunderground v.1.15,2013-01-08 10:15:00,
2013-01-08 04:21:00,18.9,16.5,29.95,West,265,0.0,0.0,90,0.00,,,0.00,Wunderground v.1.15,2013-01-08 10:21:00,
2013-01-08 04:26:00,19.1,16.7,29.95,West,265,0.0,0.0,90,0.00,,,0.00,Wunderground v.1.15,2013-01-08 10:26:00,
2013-01-08 04:32:00,18.3,15.6,29.95,West,264,0.0,0.0,89,0.00,,,0.00,Wunderground v.1.15,2013-01-08 10:32:00,
2013-01-08 04:38:00,18.2,15.8,29.95,West,264,0.0,0.0,90,0.00,,,0.00,Wunderground v.1.15,2013-01-08 10:38:00,
2013-01-08 04:43:00,18.2,15.8,29.95,West,265,0.0,0.0,90,0.00,,,0.00,Wunderground v.1.15,2013-01-08 10:43:00,
2013-01-08 04:49:00,18.9,16.5,29.95,West,264,0.0,0.0,90,0.00,,,0.00,Wunderground v.1.15,2013-01-08 10:49:00,
2013-01-08 04:55:00,18.8,16.4,29.94,West,265,0.0,0.0,90,0.00,,,0.00,Wunderground v.1.15,2013-01-08 10:55:00,
2013-01-08 05:01:00,19.7,17.2,29.94,West,265,0.0,0.0,90,0.00,,,0.00,Wunderground v.1.15,2013-01-08 11:01:00,
2013-01-08 05:06:00,20.2,17.7,29.94,West,264,0.0,0.0,90,0.00,,,0.00,Wunderground v.1.15,2013-01-08 11:06:00,
2013-01-08 05:12:00,19.7,17.2,29.94,West,264,0.0,0.0,90,0.00,,,0.00,Wunderground v.1.15,2013-01-08 11:12:00,
2013-01-08 05:20:00,19.7,17.0,29.94,West,264,0.0,0.0,90,0.00,,,0.00,weatherlink.com 1.10,2013-01-08 11:20:00,
2013-01-08 05:25:00,20.7,18.2,29.95,West,265,0.0,0.0,90,0.00,,,0.00,Wunderground v.1.15,2013-01-08 11:25:00,
2013-01-08 05:30:00,20.9,18.4,29.94,West,265,0.0,0.0,90,0.00,,,0.00,Wunderground v.1.15,2013-01-08 11:30:00,
2013-01-08 05:35:00,20.7,18.2,29.94,West,264,0.0,0.0,90,0.00,,,0.00,Wunderground v.1.15,2013-01-08 11:35:00,
2013-01-08 05:41:00,20.4,17.9,29.95,West,265,0.0,0.0,90,0.00,,,0.00,Wunderground v.1.15,2013-01-08 11:41:00,
2013-01-08 05:47:00,20.2,18.0,29.94,West,265,0.0,0.0,90,0.00,,,0.00,weatherlink.com 1.10,2013-01-08 11:47:00,
2013-01-08 05:52:00,20.2,17.7,29.94,West,264,0.0,0.0,90,0.00,,,0.00,Wunderground v.1.15,2013-01-08 11:52:00,
2013-01-08 05:58:00,20.5,18.0,29.95,West,264,0.0,0.0,90,0.00,,,0.00,Wunderground v.1.15,2013-01-08 11:58:00,
2013-01-08 06:03:00,20.3,18.0,29.94,West,264,0.0,0.0,90,0.00,,,0.00,weatherlink.com 1.10,2013-01-08 12:03:00,
2013-01-08 06:08:00,20.3,17.8,29.95,West,265,0.0,0.0,90,0.00,,,0.00,Wunderground v.1.15,2013-01-08 12:08:00,
2013-01-08 06:13:00,20.7,18.2,29.94,West,264,0.0,0.0,90,0.00,,,0.00,Wunderground v.1.15,2013-01-08 12:13:00,
2013-01-08 06:19:00,20.8,18.3,29.94,West,264,0.0,0.0,90,0.00,,,0.00,Wunderground v.1.15,2013-01-08 12:19:00,
2013-01-08 06:24:00,21.1,18.6,29.94,West,261,0.0,2.0,90,0.00,,,0.00,Wunderground v.1.15,2013-01-08 12:24:00,
2013-01-08 06:30:00,21.2,18.7,29.95,West,261,1.0,1.0,90,0.00,,,0.00,Wunderground v.1.15,2013-01-08 12:30:00,
2013-01-08 06:35:00,21.3,18.8,29.95,West,261,0.0,1.0,90,0.00,,,0.00,Wunderground v.1.15,2013-01-08 12:35:00,
2013-01-08 06:40:00,21.7,19.5,29.95,West,261,0.0,0.0,91,0.00,,,0.00,Wunderground v.1.15,2013-01-08 12:40:00,
2013-01-08 06:46:00,22.1,19.9,29.95,West,261,0.0,0.0,91,0.00,,,0.00,Wunderground v.1.15,2013-01-08 12:46:00,
2013-01-08 06:51:00,22.4,20.2,29.95,West,261,0.0,0.0,91,0.00,,,0.00,Wunderground v.1.15,2013-01-08 12:51:00,
2013-01-08 06:57:00,22.7,20.5,29.95,West,261,0.0,0.0,91,0.00,,,0.00,Wunderground v.1.15,2013-01-08 12:57:00,
2013-01-08 07:03:00,22.7,20.0,29.95,West,261,0.0,0.0,90,0.00,,,0.00,weatherlink.com 1.10,2013-01-08 13:03:00,
2013-01-08 07:08:00,22.7,20.2,29.95,West,261,0.0,1.0,90,0.00,,,0.00,Wunderground v.1.15,2013-01-08 13:08:00,
2013-01-08 07:14:00,22.8,20.3,29.95,West,261,0.0,1.0,90,0.00,,,0.00,Wunderground v.1.15,2013-01-08 13:14:00,
2013-01-08 07:19:00,22.8,20.0,29.95,West,261,2.0,4.0,90,0.00,,,0.00,weatherlink.com 1.10,2013-01-08 13:19:00,
2013-01-08 07:24:00,23.2,21.0,29.95,West,261,1.0,2.0,91,0.00,,,0.00,Wunderground v.1.15,2013-01-08 13:24:00,
2013-01-08 07:30:00,23.2,21.0,29.95,West,261,1.0,1.0,91,0.00,,,0.00,Wunderground v.1.15,2013-01-08 13:30:00,
2013-01-08 07:36:00,23.2,20.7,29.94,West,261,0.0,1.0,90,0.00,,,0.00,Wunderground v.1.15,2013-01-08 13:36:00,
2013-01-08 07:41:00,23.1,20.6,29.95,West,261,0.0,0.0,90,0.00,,,0.00,Wunderground v.1.15,2013-01-08 13:41:00,
2013-01-08 07:46:00,23.1,20.9,29.95,West,261,0.0,0.0,91,0.00,,,0.00,Wunderground v.1.15,2013-01-08 13:46:00,
2013-01-08 07:51:00,22.9,20.7,29.94,West,261,0.0,0.0,91,0.00,,,0.00,Wunderground v.1.15,2013-01-08 13:51:00,
2013-01-08 07:57:00,22.5,20.0,29.95,West,261,0.0,0.0,90,0.00,,,0.00,Wunderground v.1.15,2013-01-08 13:57:00,
2013-01-08 08:03:00,22.6,20.0,29.95,West,261,0.0,0.0,90,0.00,,,0.00,weatherlink.com 1.10,2013-01-08 14:03:00,
2013-01-08 08:08:00,22.7,20.2,29.95,West,261,0.0,0.0,90,0.00,,,0.00,Wunderground v.1.15,2013-01-08 14:08:00,
2013-01-08 08:14:00,22.9,20.7,29.95,West,261,0.0,0.0,91,0.00,,,0.00,Wunderground v.1.15,2013-01-08 14:14:00,
2013-01-08 08:20:00,23.3,21.1,29.95,West,261,0.0,0.0,91,0.00,,,0.00,Wunderground v.1.15,2013-01-08 14:20:00,
2013-01-08 08:25:00,23.4,21.2,29.96,West,261,0.0,0.0,91,0.00,,,0.00,Wunderground v.1.15,2013-01-08 14:25:00,
2013-01-08 08:31:00,23.6,21.4,29.96,West,261,0.0,0.0,91,0.00,,,0.00,Wunderground v.1.15,2013-01-08 14:31:00,
2013-01-08 08:37:00,23.6,21.4,29.96,West,261,0.0,1.0,91,0.00,,,0.00,Wunderground v.1.15,2013-01-08 14:37:00,
2013-01-08 08:43:00,23.9,21.7,29.96,WSW,253,1.0,3.0,91,0.00,,,0.00,Wunderground v.1.15,2013-01-08 14:43:00,
2013-01-08 08:49:00,24.0,22.0,29.96,WSW,251,0.0,4.0,91,0.00,,,0.00,weatherlink.com 1.10,2013-01-08 14:49:00,
2013-01-08 08:54:00,24.2,22.0,29.96,WSW,251,1.0,2.0,91,0.00,,,0.00,Wunderground v.1.15,2013-01-08 14:54:00,
2013-01-08 09:00:00,24.4,22.2,29.97,WSW,251,1.0,1.0,91,0.00,,,0.00,Wunderground v.1.15,2013-01-08 15:00:00,
2013-01-08 09:05:00,24.6,22.3,29.97,WSW,251,1.0,3.0,91,0.00,,,0.00,Wunderground v.1.15,2013-01-08 15:05:00,
2013-01-08 09:11:00,25.2,22.9,29.97,WSW,241,1.0,3.0,91,0.00,,,0.00,Wunderground v.1.15,2013-01-08 15:11:00,
2013-01-08 09:16:00,25.5,23.2,29.97,SW,232,2.0,3.0,91,0.00,,,0.00,Wunderground v.1.15,2013-01-08 15:16:00,
2013-01-08 09:21:00,25.8,23.5,29.96,SSW,200,2.0,2.0,91,0.00,,,0.00,Wunderground v.1.15,2013-01-08 15:21:00,
2013-01-08 09:27:00,26.1,23.8,29.96,SSW,201,1.0,4.0,91,0.00,,,0.00,Wunderground v.1.15,2013-01-08 15:27:00,
2013-01-08 09:33:00,26.4,24.1,29.97,SSW,203,2.0,2.0,91,0.00,,,0.00,Wunderground v.1.15,2013-01-08 15:33:00,
2013-01-08 09:39:00,26.8,24.5,29.97,SSW,205,3.0,4.0,91,0.00,,,0.00,Wunderground v.1.15,2013-01-08 15:39:00,
2013-01-08 09:45:00,26.5,24.2,29.97,SW,233,4.0,5.0,91,0.00,,,0.00,Wunderground v.1.15,2013-01-08 15:45:00,
2013-01-08 09:50:00,26.7,24.4,29.97,SW,236,5.0,5.0,91,0.00,,,0.00,Wunderground v.1.15,2013-01-08 15:50:00,
2013-01-08 09:55:00,27.2,24.9,29.98,WSW,238,4.0,6.0,91,0.00,,,0.00,Wunderground v.1.15,2013-01-08 15:55:00,
2013-01-08 10:01:00,27.6,25.3,29.97,WSW,238,4.0,5.0,91,0.00,,,0.00,Wunderground v.1.15,2013-01-08 16:01:00,
2013-01-08 10:07:00,28.0,25.7,29.97,WSW,240,4.0,5.0,91,0.00,,,0.00,Wunderground v.1.15,2013-01-08 16:07:00,
2013-01-08 10:12:00,28.3,26.0,29.97,WSW,245,5.0,5.0,91,0.00,,,0.00,Wunderground v.1.15,2013-01-08 16:12:00,
2013-01-08 10:17:00,28.5,26.2,29.97,WSW,245,5.0,6.0,91,0.00,,,0.00,Wunderground v.1.15,2013-01-08 16:17:00,
2013-01-08 10:22:00,28.7,26.4,29.96,WSW,251,5.0,6.0,91,0.00,,,0.00,Wunderground v.1.15,2013-01-08 16:22:00,
2013-01-08 10:28:00,28.8,26.5,29.96,SW,234,5.0,6.0,91,0.00,,,0.00,Wunderground v.1.15,2013-01-08 16:28:00,
2013-01-08 10:34:00,29.0,27.0,29.96,SW,235,5.0,7.0,90,0.00,,,0.00,weatherlink.com 1.10,2013-01-08 16:34:00,
2013-01-08 10:39:00,29.3,26.7,29.96,WSW,244,5.0,7.0,90,0.00,,,0.00,Wunderground v.1.15,2013-01-08 16:39:00,
2013-01-08 10:45:00,29.3,26.5,29.96,WSW,246,5.0,7.0,89,0.00,,,0.00,Wunderground v.1.15,2013-01-08 16:45:00,
2013-01-08 10:51:00,29.3,26.5,29.95,WSW,248,5.0,7.0,89,0.00,,,0.00,Wunderground v.1.15,2013-01-08 16:51:00,
2013-01-08 10:57:00,29.6,26.8,29.95,WSW,246,5.0,7.0,89,0.00,,,0.00,Wunderground v.1.15,2013-01-08 16:57:00,
2013-01-08 11:02:00,29.8,26.7,29.95,West,259,5.0,6.0,88,0.00,,,0.00,Wunderground v.1.15,2013-01-08 17:02:00,
2013-01-08 11:08:00,29.9,26.8,29.94,SW,232,6.0,10.0,88,0.00,,,0.00,Wunderground v.1.15,2013-01-08 17:08:00,
2013-01-08 11:14:00,30.0,26.6,29.93,WSW,239,8.0,9.0,87,0.00,,,0.00,Wunderground v.1.15,2013-01-08 17:14:00,
2013-01-08 11:20:00,30.2,26.8,29.93,SW,229,8.0,8.0,87,0.00,,,0.00,Wunderground v.1.15,2013-01-08 17:20:00,
2013-01-08 11:25:00,30.7,27.3,29.93,WSW,250,7.0,8.0,87,0.00,,,0.00,Wunderground v.1.15,2013-01-08 17:25:00,
2013-01-08 11:31:00,31.0,27.3,29.94,WSW,256,8.0,11.0,86,0.00,,,0.00,Wunderground v.1.15,2013-01-08 17:31:00,
2013-01-08 11:36:00,31.2,27.2,29.93,WSW,246,9.0,12.0,85,0.00,,,0.00,Wunderground v.1.15,2013-01-08 17:36:00,
2013-01-08 11:42:00,31.2,27.2,29.93,WSW,238,10.0,11.0,85,0.00,,,0.00,Wunderground v.1.15,2013-01-08 17:42:00,
2013-01-08 11:48:00,31.4,27.0,29.93,WSW,239,9.0,12.0,84,0.00,,,0.00,weatherlink.com 1.10,2013-01-08 17:48:00,
2013-01-08 11:53:00,31.7,27.4,29.93,SW,227,9.0,11.0,84,0.00,,,0.00,Wunderground v.1.15,2013-01-08 17:53:00,
2013-01-08 11:59:00,32.0,27.4,29.93,SW,223,9.0,11.0,83,0.00,,,0.00,Wunderground v.1.15,2013-01-08 17:59:00,
2013-01-08 12:05:00,32.3,27.7,29.93,WSW,240,9.0,11.0,83,0.00,,,0.00,Wunderground v.1.15,2013-01-08 18:05:00,
2013-01-08 12:11:00,32.6,27.7,29.92,South,183,9.0,11.0,82,0.00,,,0.00,Wunderground v.1.15,2013-01-08 18:11:00,
2013-01-08 12:17:00,32.8,27.9,29.92,SW,234,9.0,11.0,82,0.00,,,0.00,Wunderground v.1.15,2013-01-08 18:17:00,
2013-01-08 12:23:00,33.0,28.1,29.92,WSW,244,8.0,9.0,82,0.00,,,0.00,Wunderground v.1.15,2013-01-08 18:23:00,
2013-01-08 12:29:00,33.5,28.3,29.92,SW,236,8.0,11.0,81,0.00,,,0.00,Wunderground v.1.15,2013-01-08 18:29:00,
2013-01-08 12:35:00,34.0,28.5,29.92,SW,216,9.0,9.0,80,0.00,,,0.00,Wunderground v.1.15,2013-01-08 18:35:00,
2013-01-08 12:41:00,34.2,28.4,29.92,SW,229,10.0,11.0,79,0.00,,,0.00,Wunderground v.1.15,2013-01-08 18:41:00,
2013-01-08 12:47:00,34.3,28.5,29.91,SW,225,10.0,13.0,79,0.00,,,0.00,Wunderground v.1.15,2013-01-08 18:47:00,
2013-01-08 12:52:00,34.4,28.6,29.92,WSW,244,10.0,12.0,79,0.00,,,0.00,Wunderground v.1.15,2013-01-08 18:52:00,
2013-01-08 12:58:00,34.4,28.6,29.92,WSW,240,11.0,12.0,79,0.00,,,0.00,Wunderground v.1.15,2013-01-08 18:58:00,
2013-01-08 13:04:00,34.4,29.0,29.91,SW,235,12.0,16.0,79,0.00,,,0.00,weatherlink.com 1.10,2013-01-08 19:04:00,
2013-01-08 13:09:00,34.8,29.0,29.91,SW,220,12.0,15.0,79,0.00,,,0.00,Wunderground v.1.15,2013-01-08 19:09:00,
2013-01-08 13:15:00,35.2,29.0,29.90,SW,223,13.0,15.0,78,0.00,,,0.00,Wunderground v.1.15,2013-01-08 19:15:00,
2013-01-08 13:21:00,35.5,29.3,29.91,SW,233,12.0,12.0,78,0.00,,,0.00,Wunderground v.1.15,2013-01-08 19:21:00,
2013-01-08 13:27:00,35.9,29.4,29.91,SW,235,12.0,15.0,77,0.00,,,0.00,Wunderground v.1.15,2013-01-08 19:27:00,
2013-01-08 13:33:00,36.2,29.7,29.91,WSW,248,12.0,12.0,77,0.00,,,0.00,Wunderground v.1.15,2013-01-08 19:33:00,
2013-01-08 13:38:00,36.5,30.0,29.91,SW,223,10.0,12.0,77,0.00,,,0.00,Wunderground v.1.15,2013-01-08 19:38:00,
2013-01-08 13:44:00,36.7,30.2,29.91,WSW,252,10.0,14.0,77,0.00,,,0.00,Wunderground v.1.15,2013-01-08 19:44:00,
2013-01-08 13:50:00,36.8,29.9,29.91,SW,221,12.0,12.0,76,0.00,,,0.00,Wunderground v.1.15,2013-01-08 19:50:00,
2013-01-08 13:56:00,36.8,29.9,29.91,SSW,209,13.0,17.0,76,0.00,,,0.00,Wunderground v.1.15,2013-01-08 19:56:00,
2013-01-08 14:01:00,36.8,29.9,29.92,WSW,245,14.0,14.0,76,0.00,,,0.00,Wunderground v.1.15,2013-01-08 20:01:00,
2013-01-08 14:07:00,36.8,29.9,29.92,SW,234,13.0,14.0,76,0.00,,,0.00,Wunderground v.1.15,2013-01-08 20:07:00,
2013-01-08 14:13:00,37.1,30.2,29.93,WSW,250,11.0,13.0,76,0.00,,,0.00,Wunderground v.1.15,2013-01-08 20:13:00,
2013-01-08 14:19:00,37.2,30.0,29.93,SW,228,12.0,15.0,75,0.00,,,0.00,Wunderground v.1.15,2013-01-08 20:19:00,
2013-01-08 14:25:00,37.3,30.1,29.93,SW,229,13.0,18.0,75,0.00,,,0.00,Wunderground v.1.15,2013-01-08 20:25:00,
2013-01-08 14:30:00,37.5,30.3,29.93,SW,234,13.0,13.0,75,0.00,,,0.00,Wunderground v.1.15,2013-01-08 20:30:00,
2013-01-08 14:37:00,37.4,30.2,29.93,WSW,245,12.0,14.0,75,0.00,,,0.00,Wunderground v.1.15,2013-01-08 20:37:00,
2013-01-08 14:43:00,37.4,30.2,29.94,WSW,246,10.0,11.0,75,0.00,,,0.00,Wunderground v.1.15,2013-01-08 20:43:00,
2013-01-08 14:49:00,37.3,30.0,29.94,WSW,244,7.0,13.0,76,0.00,,,0.00,weatherlink.com 1.10,2013-01-08 20:49:00,
2013-01-08 14:54:00,37.1,30.2,29.94,WSW,242,9.0,9.0,76,0.00,,,0.00,Wunderground v.1.15,2013-01-08 20:54:00,
2013-01-08 15:00:00,36.9,30.0,29.94,WSW,241,9.0,10.0,76,0.00,,,0.00,Wunderground v.1.15,2013-01-08 21:00:00,
2013-01-08 15:06:00,36.9,30.4,29.94,SW,234,11.0,14.0,77,0.00,,,0.00,Wunderground v.1.15,2013-01-08 21:06:00,
2013-01-08 15:11:00,36.7,30.2,29.94,WSW,241,12.0,13.0,77,0.00,,,0.00,Wunderground v.1.15,2013-01-08 21:11:00,
2013-01-08 15:17:00,36.7,30.2,29.94,WSW,237,12.0,14.0,77,0.00,,,0.00,Wunderground v.1.15,2013-01-08 21:17:00,
2013-01-08 15:23:00,36.8,30.3,29.95,West,264,13.0,15.0,77,0.00,,,0.00,Wunderground v.1.15,2013-01-08 21:23:00,
2013-01-08 15:28:00,36.7,30.2,29.96,WSW,246,13.0,15.0,77,0.00,,,0.00,Wunderground v.1.15,2013-01-08 21:28:00,
2013-01-08 15:33:00,36.8,29.9,29.97,SW,234,12.0,13.0,76,0.00,,,0.00,Wunderground v.1.15,2013-01-08 21:33:00,
2013-01-08 15:38:00,36.6,29.7,29.97,WSW,241,11.0,14.0,76,0.00,,,0.00,Wunderground v.1.15,2013-01-08 21:38:00,
2013-01-08 15:44:00,36.4,29.6,29.97,WSW,254,12.0,15.0,76,0.00,,,0.00,Wunderground v.1.15,2013-01-08 21:44:00,
2013-01-08 15:50:00,36.3,30.0,29.97,West,264,15.0,16.0,77,0.00,,,0.00,weatherlink.com 1.10,2013-01-08 21:50:00,
2013-01-08 15:55:00,36.4,29.6,29.98,WSW,257,10.0,12.0,76,0.00,,,0.00,Wunderground v.1.15,2013-01-08 21:55:00,
2013-01-08 16:02:00,36.3,29.8,29.98,WSW,245,9.0,11.0,77,0.00,,,0.00,Wunderground v.1.15,2013-01-08 22:02:00,
2013-01-08 16:09:00,36.2,29.4,29.99,SW,223,9.0,16.0,76,0.00,,,0.00,Wunderground v.1.15,2013-01-08 22:09:00,
2013-01-08 16:15:00,36.2,29.4,29.99,WSW,258,9.0,12.0,76,0.00,,,0.00,Wunderground v.1.15,2013-01-08 22:15:00,
2013-01-08 16:20:00,36.1,29.3,30.00,WSW,245,9.0,9.0,76,0.00,,,0.00,Wunderground v.1.15,2013-01-08 22:20:00,
2013-01-08 16:26:00,36.0,29.2,30.00,WSW,254,9.0,15.0,76,0.00,,,0.00,Wunderground v.1.15,2013-01-08 22:26:00,
2013-01-08 16:31:00,36.0,29.2,30.00,WSW,254,10.0,10.0,76,0.00,,,0.00,Wunderground v.1.15,2013-01-08 22:31:00,
2013-01-08 16:37:00,35.8,29.0,30.00,WSW,244,10.0,11.0,76,0.00,,,0.00,Wunderground v.1.15,2013-01-08 22:37:00,
2013-01-08 16:42:00,35.7,28.9,30.00,WSW,255,10.0,10.0,76,0.00,,,0.00,Wunderground v.1.15,2013-01-08 22:42:00,
2013-01-08 16:48:00,35.6,28.8,30.00,West,265,10.0,14.0,76,0.00,,,0.00,Wunderground v.1.15,2013-01-08 22:48:00,
2013-01-08 16:54:00,35.5,29.0,30.00,WSW,252,9.0,12.0,77,0.00,,,0.00,Wunderground v.1.15,2013-01-08 22:54:00,
2013-01-08 16:59:00,35.4,28.9,30.00,West,260,9.0,12.0,77,0.00,,,0.00,Wunderground v.1.15,2013-01-08 22:59:00,
2013-01-08 17:05:00,35.3,29.0,30.01,West,274,10.0,14.0,77,0.00,,,0.00,weatherlink.com 1.10,2013-01-08 23:05:00,
2013-01-08 17:10:00,35.1,28.9,30.01,West,263,8.0,8.0,78,0.00,,,0.00,Wunderground v.1.15,2013-01-08 23:10:00,
2013-01-08 17:16:00,35.1,28.9,30.01,WSW,257,8.0,8.0,78,0.00,,,0.00,Wunderground v.1.15,2013-01-08 23:16:00,
2013-01-08 17:21:00,35.0,28.8,30.01,West,277,8.0,8.0,78,0.00,,,0.00,Wunderground v.1.15,2013-01-08 23:21:00,
2013-01-08 17:27:00,34.9,28.7,30.01,West,271,8.0,10.0,78,0.00,,,0.00,Wunderground v.1.15,2013-01-08 23:27:00,
2013-01-08 17:33:00,34.9,28.7,30.01,West,273,9.0,9.0,78,0.00,,,0.00,Wunderground v.1.15,2013-01-08 23:33:00,
2013-01-08 17:38:00,34.9,28.7,30.01,West,262,8.0,9.0,78,0.00,,,0.00,Wunderground v.1.15,2013-01-08 23:38:00,
2013-01-08 17:43:00,34.8,28.6,30.01,West,273,7.0,10.0,78,0.00,,,0.00,Wunderground v.1.15,2013-01-08 23:43:00,
2013-01-08 17:48:00,34.9,28.7,30.01,WSW,252,7.0,13.0,78,0.00,,,0.00,Wunderground v.1.15,2013-01-08 23:48:00,
2013-01-08 17:53:00,34.9,28.7,30.01,West,265,8.0,11.0,78,0.00,,,0.00,Wunderground v.1.15,2013-01-08 23:53:00,
2013-01-08 17:59:00,34.8,29.0,30.02,West,264,8.0,11.0,79,0.00,,,0.00,Wunderground v.1.15,2013-01-08 23:59:00,
2013-01-08 18:05:00,34.8,29.0,30.02,West,259,6.0,11.0,79,0.00,,,0.00,weatherlink.com 1.10,2013-01-09 00:05:00,
2013-01-08 18:10:00,34.9,29.0,30.02,WSW,246,8.0,10.0,79,0.00,,,0.00,Wunderground v.1.15,2013-01-09 00:10:00,
2013-01-08 18:15:00,35.0,29.1,30.03,West,261,9.0,11.0,79,0.00,,,0.00,Wunderground v.1.15,2013-01-09 00:15:00,
2013-01-08 18:21:00,35.0,29.1,30.04,West,262,9.0,10.0,79,0.00,,,0.00,Wunderground v.1.15,2013-01-09 00:21:00,
2013-01-08 18:27:00,34.9,29.0,30.04,West,265,9.0,11.0,79,0.00,,,0.00,Wunderground v.1.15,2013-01-09 00:27:00,
2013-01-08 18:33:00,34.7,28.9,30.04,West,262,9.0,9.0,79,0.00,,,0.00,Wunderground v.1.15,2013-01-09 00:33:00,
2013-01-08 18:39:00,34.4,28.6,30.04,WSW,254,8.0,10.0,79,0.00,,,0.00,Wunderground v.1.15,2013-01-09 00:39:00,
2013-01-08 18:44:00,34.4,28.6,30.05,West,264,8.0,8.0,79,0.00,,,0.00,Wunderground v.1.15,2013-01-09 00:44:00,
2013-01-08 18:49:00,34.4,28.9,30.05,West,267,8.0,9.0,80,0.00,,,0.00,Wunderground v.1.15,2013-01-09 00:49:00,
2013-01-08 18:55:00,34.4,28.9,30.05,West,263,8.0,9.0,80,0.00,,,0.00,Wunderground v.1.15,2013-01-09 00:55:00,
2013-01-08 19:00:00,34.4,28.9,30.06,West,267,7.0,7.0,80,0.00,,,0.00,Wunderground v.1.15,2013-01-09 01:00:00,
2013-01-08 19:05:00,34.3,28.8,30.06,West,269,7.0,7.0,80,0.00,,,0.00,Wunderground v.1.15,2013-01-09 01:05:00,
2013-01-08 19:11:00,34.0,28.8,30.07,West,261,8.0,9.0,81,0.00,,,0.00,Wunderground v.1.15,2013-01-09 01:11:00,
2013-01-08 19:16:00,33.9,28.7,30.07,West,275,8.0,9.0,81,0.00,,,0.00,Wunderground v.1.15,2013-01-09 01:16:00,
2013-01-08 19:21:00,33.8,28.6,30.08,WSW,258,8.0,8.0,81,0.00,,,0.00,Wunderground v.1.15,2013-01-09 01:21:00,
2013-01-08 19:27:00,33.7,28.5,30.08,West,265,7.0,10.0,81,0.00,,,0.00,Wunderground v.1.15,2013-01-09 01:27:00,
2013-01-08 19:32:00,33.5,28.3,30.09,WSW,244,7.0,8.0,81,0.00,,,0.00,Wunderground v.1.15,2013-01-09 01:32:00,
2013-01-08 19:38:00,33.3,28.4,30.09,West,273,7.0,9.0,82,0.00,,,0.00,Wunderground v.1.15,2013-01-09 01:38:00,
2013-01-08 19:44:00,33.2,28.3,30.09,WSW,244,7.0,7.0,82,0.00,,,0.00,Wunderground v.1.15,2013-01-09 01:44:00,
2013-01-08 19:50:00,33.0,28.1,30.09,WSW,250,7.0,7.0,82,0.00,,,0.00,Wunderground v.1.15,2013-01-09 01:50:00,
2013-01-08 19:55:00,32.9,28.0,30.10,WSW,244,7.0,8.0,82,0.00,,,0.00,Wunderground v.1.15,2013-01-09 01:55:00,
2013-01-08 20:01:00,32.8,27.9,30.10,WSW,253,6.0,6.0,82,0.00,,,0.00,Wunderground v.1.15,2013-01-09 02:01:00,
2013-01-08 20:06:00,32.7,28.1,30.11,WSW,240,7.0,11.0,83,0.00,,,0.00,Wunderground v.1.15,2013-01-09 02:06:00,
2013-01-08 20:12:00,32.9,28.3,30.11,WSW,246,7.0,11.0,83,0.00,,,0.00,Wunderground v.1.15,2013-01-09 02:12:00,
2013-01-08 20:18:00,32.9,28.3,30.11,WSW,248,8.0,11.0,83,0.00,,,0.00,Wunderground v.1.15,2013-01-09 02:18:00,
2013-01-08 20:23:00,32.9,28.3,30.11,WSW,243,8.0,11.0,83,0.00,,,0.00,Wunderground v.1.15,2013-01-09 02:23:00,
2013-01-08 20:29:00,32.8,28.2,30.12,West,268,8.0,11.0,83,0.00,,,0.00,Wunderground v.1.15,2013-01-09 02:29:00,
2013-01-08 20:34:00,32.6,28.0,30.12,West,268,7.0,8.0,83,0.00,,,0.00,Wunderground v.1.15,2013-01-09 02:34:00,
2013-01-08 20:40:00,32.6,28.0,30.12,WSW,256,6.0,6.0,83,0.00,,,0.00,Wunderground v.1.15,2013-01-09 02:40:00,
2013-01-08 20:46:00,32.6,28.0,30.12,West,259,6.0,7.0,83,0.00,,,0.00,Wunderground v.1.15,2013-01-09 02:46:00,
2013-01-08 20:52:00,32.8,28.2,30.13,West,260,7.0,9.0,83,0.00,,,0.00,Wunderground v.1.15,2013-01-09 02:52:00,
2013-01-08 20:58:00,32.8,28.5,30.13,WSW,247,8.0,10.0,84,0.00,,,0.00,Wunderground v.1.15,2013-01-09 02:58:00,
2013-01-08 21:04:00,32.7,28.1,30.13,WSW,254,8.0,9.0,83,0.00,,,0.00,Wunderground v.1.15,2013-01-09 03:04:00,
2013-01-08 21:11:00,32.7,28.1,30.14,WSW,246,7.0,7.0,83,0.00,,,0.00,Wunderground v.1.15,2013-01-09 03:11:00,
2013-01-08 21:16:00,32.6,28.0,30.14,WSW,239,8.0,12.0,83,0.00,,,0.00,Wunderground v.1.15,2013-01-09 03:16:00,
2013-01-08 21:22:00,32.5,27.9,30.14,WSW,244,9.0,11.0,83,0.00,,,0.00,Wunderground v.1.15,2013-01-09 03:22:00,
2013-01-08 21:28:00,32.4,27.8,30.15,WSW,254,9.0,11.0,83,0.00,,,0.00,Wunderground v.1.15,2013-01-09 03:28:00,
2013-01-08 21:33:00,32.5,28.2,30.15,West,263,8.0,9.0,84,0.00,,,0.00,Wunderground v.1.15,2013-01-09 03:33:00,
2013-01-08 21:39:00,32.7,28.1,30.15,West,274,7.0,11.0,83,0.00,,,0.00,Wunderground v.1.15,2013-01-09 03:39:00,
2013-01-08 21:45:00,32.9,28.3,30.16,West,264,7.0,9.0,83,0.00,,,0.00,Wunderground v.1.15,2013-01-09 03:45:00,
2013-01-08 21:50:00,33.0,28.4,30.16,WSW,252,8.0,12.0,83,0.00,,,0.00,Wunderground v.1.15,2013-01-09 03:50:00,
2013-01-08 21:56:00,33.3,28.7,30.16,WSW,248,9.0,12.0,83,0.00,,,0.00,Wunderground v.1.15,2013-01-09 03:56:00,
2013-01-08 22:01:00,33.2,28.3,30.17,West,272,8.0,9.0,82,0.00,,,0.00,Wunderground v.1.15,2013-01-09 04:01:00,
2013-01-08 22:06:00,33.3,28.4,30.17,West,275,8.0,12.0,82,0.00,,,0.00,Wunderground v.1.15,2013-01-09 04:06:00,
2013-01-08 22:12:00,33.3,28.4,30.17,WNW,282,9.0,10.0,82,0.00,,,0.00,Wunderground v.1.15,2013-01-09 04:12:00,
2013-01-08 22:18:00,33.2,28.3,30.17,West,271,8.0,10.0,82,0.00,,,0.00,Wunderground v.1.15,2013-01-09 04:18:00,
2013-01-08 22:24:00,32.9,28.0,30.17,West,261,8.0,9.0,82,0.00,,,0.00,Wunderground v.1.15,2013-01-09 04:24:00,
2013-01-08 22:30:00,32.8,27.9,30.17,West,267,8.0,8.0,82,0.00,,,0.00,Wunderground v.1.15,2013-01-09 04:30:00,
2013-01-08 22:35:00,32.7,27.8,30.17,West,264,7.0,8.0,82,0.00,,,0.00,Wunderground v.1.15,2013-01-09 04:35:00,
2013-01-08 22:41:00,32.6,27.7,30.18,West,259,7.0,8.0,82,0.00,,,0.00,Wunderground v.1.15,2013-01-09 04:41:00,
2013-01-08 22:47:00,32.3,27.4,30.18,West,267,6.0,8.0,82,0.00,,,0.00,Wunderground v.1.15,2013-01-09 04:47:00,
2013-01-08 22:52:00,32.2,27.6,30.18,West,264,6.0,6.0,83,0.00,,,0.00,Wunderground v.1.15,2013-01-09 04:52:00,
2013-01-08 22:58:00,32.2,27.6,30.19,West,270,6.0,6.0,83,0.00,,,0.00,Wunderground v.1.15,2013-01-09 04:58:00,
2013-01-08 23:00:00,32.2,27.6,30.19,West,269,6.0,6.0,83,0.00,,,0.00,Wunderground v.1.15,2013-01-09 05:00:00,
2013-01-08 23:02:00,32.2,27.6,30.19,West,269,6.0,6.0,83,0.00,,,0.00,Wunderground v.1.15,2013-01-09 05:02:00,
2013-01-08 23:08:00,32.1,27.5,30.19,West,270,6.0,7.0,83,0.00,,,0.00,Wunderground v.1.15,2013-01-09 05:08:00,
2013-01-08 23:11:00,32.0,27.4,30.19,West,270,6.0,6.0,83,0.00,,,0.00,Wunderground v.1.15,2013-01-09 05:11:00,
2013-01-08 23:12:00,32.0,27.4,30.19,West,267,6.0,6.0,83,0.00,,,0.00,Wunderground v.1.15,2013-01-09 05:12:00,
2013-01-08 23:20:00,31.8,27.2,30.19,West,272,6.0,6.0,83,0.00,,,0.00,Wunderground v.1.15,2013-01-09 05:20:00,
2013-01-08 23:25:00,31.5,26.9,30.19,West,268,5.0,6.0,83,0.00,,,0.00,Wunderground v.1.15,2013-01-09 05:25:00,
2013-01-08 23:31:00,31.4,26.8,30.19,West,277,5.0,6.0,83,0.00,,,0.00,Wunderground v.1.15,2013-01-09 05:31:00,
2013-01-08 23:36:00,31.2,26.6,30.19,West,274,5.0,6.0,83,0.00,,,0.00,Wunderground v.1.15,2013-01-09 05:36:00,
2013-01-08 23:42:00,30.8,26.2,30.19,WSW,257,5.0,6.0,83,0.00,,,0.00,Wunderground v.1.15,2013-01-09 05:42:00,
2013-01-08 23:47:00,30.5,26.0,30.19,West,261,5.0,7.0,83,0.00,,,0.00,Wunderground v.1.15,2013-01-09 05:47:00,
2013-01-08 23:53:00,30.4,26.1,30.19,West,266,5.0,5.0,84,0.00,,,0.00,Wunderground v.1.15,2013-01-09 05:53:00,
2013-01-08 23:59:00,30.3,26.0,30.20,West,269,5.0,6.0,84,0.00,,,0.00,Wunderground v.1.15,2013-01-09 05:59:00,